Home   Weather   Township of Greenwich   Past weeks
Flag for USA

Past Weather in Township of Greenwich, New Jersey, USA — Yesterday and Last 2 Weeks

Now
51 °F

Light rain. Fog.


Feels Like: 48 °F
Forecast: 54 / 43 °F
Wind: 8 mph from Northeast

Location: Philadelphia International Airport

Current Time: Dec 14, 2019 at 5:22:01 am

Latest Report: Dec 14, 2019 at 4:54 am


Visibility: 2 mi

Pressure: 29.56 "Hg

Humidity: 92%

Dew Point: 49 °F

Location of Township of GreenwichLocation

Past Weather in Township of Greenwich — Graph

°F

Township of Greenwich Temperature Yesterday

Maximum temperature yesterday: 50 °F (at 8:54 pm)
Minimum temperature yesterday: 30 °F (at 12:54 am)
Average temperature yesterday: 42 °F

High & Low Weather Summary for the Past Weeks

 TemperatureHumidityPressure
High58 °F (Dec 10, 10:33 am)96% (Dec 14, 12:54 am)30.74 "Hg (Dec 14, 12:54 am)
Low26 °F (Dec 8, 2:54 am)26% (Nov 30, 3:54 pm)29.47 "Hg (Dec 1, 8:54 pm)
Average40 °F69%30.01 "Hg
* Reported Nov 29 3:54 am — Dec 14 3:54 am, Township of Greenwich. Weather by CustomWeather, © 2019

Note: Actual official high and low records may vary slightly from our data, if they occured in-between our weather recording intervals... More about our weather records

Township of Greenwich Weather History for the Previous 24 Hours

Scroll right to see more
 ConditionsComfort  
Time TempWeatherWind HumidityBarometerVisibility
3:54 am
Sat, Dec 14
50 °FLight rain. Fog.7 mph93%29.58 "Hg5 mi
2:54 am51 °FLight rain. Mostly cloudy.10 mph92%29.61 "Hg8 mi
2:19 am51 °FLight rain. Mostly cloudy.8 mph92%29.65 "Hg7 mi
1:54 am51 °FLight rain. Fog.10 mph92%29.67 "Hg6 mi
12:54 am50 °FLight rain. Mostly cloudy.7 mph96%29.71 "Hg7 mi
11:54 pm
Fri, Dec 13
50 °FLight rain. Low clouds.8 mph89%29.78 "Hg7 mi
11:39 pm49 °FLight rain. Mostly cloudy.9 mph93%29.81 "Hg7 mi
10:54 pm49 °FLight rain. Fog.12 mph93%29.86 "Hg6 mi
10:38 pm49 °FLight rain. Fog.10 mph93%29.88 "Hg5 mi
9:54 pm50 °FRain. Fog.15 mph93%29.91 "Hg4 mi
9:17 pm50 °FLight rain. Fog.10 mph93%29.94 "Hg4 mi
8:54 pm50 °FLight rain. Fog.10 mph93%29.96 "Hg4 mi
8:36 pm49 °FRain. Fog.9 mph93%29.99 "Hg4 mi
7:54 pm48 °FLight rain. Fog.8 mph93%30.02 "Hg4 mi
6:54 pm48 °FLight rain. Fog.8 mph93%30.06 "Hg4 mi
5:54 pm46 °FLight rain. Fog.7 mph93%30.10 "Hg3 mi
5:10 pm46 °FLight rain. Fog.6 mph89%30.11 "Hg4 mi
4:54 pm46 °FLight rain. Fog.8 mph89%30.12 "Hg4 mi
4:24 pm45 °FLight rain. Fog.8 mph90%30.14 "Hg3 mi
3:54 pm46 °FLight rain. Fog.6 mph86%30.16 "Hg4 mi
2:54 pm47 °FLight rain. Fog.8 mph86%30.18 "Hg5 mi
2:38 pm47 °FLight rain. Low clouds.8 mph83%30.18 "Hg5 mi
1:54 pm47 °FLow clouds.5 mph77%30.22 "Hg7 mi
12:54 pm46 °FMostly cloudy.8 mph77%30.24 "Hg7 mi
12:22 pm44 °FMostly cloudy.6 mph79%30.27 "Hg8 mi
12:05 pm44 °FMostly cloudy.7 mph79%30.28 "Hg10 mi
10:54 am40 °FMostly cloudy.5 mph77%30.33 "Hg10 mi
10:25 am39 °FMostly cloudy.8 mph76%30.35 "Hg10 mi
10:03 am39 °FMostly cloudy.8 mph70%30.35 "Hg10 mi
8:54 am37 °FMostly cloudy.7 mph70%30.38 "Hg10 mi
8:43 am36 °FMostly cloudy.8 mph73%30.40 "Hg10 mi
7:54 am34 °FMostly cloudy.5 mph73%30.41 "Hg10 mi
6:54 am34 °FMostly cloudy.6 mph73%30.42 "Hg10 mi
5:54 am33 °FMostly cloudy.7 mph72%30.45 "Hg10 mi
Weather by CustomWeather, © 2019

See weather overview

Advertising